Home > Weather > Blackpool > Past weeks

Flag for United Kingdom Weather for the Past 2 Weeks in Blackpool, England, United Kingdom

Now
54 °F

Passing clouds.


Feels Like: 51 °F
Forecast: 47 / 52 °F
Wind: 9 mph from South

Location: Liverpool Airport

Current Time: May 2, 2016 at 3:02:24 AM

Latest Report: May 2, 2016 at 2:20 AM


Visibility: N/A

Pressure: 30.07 "Hg

Humidity: 88%

Dew Point: 50 °F

Location of BlackpoolLocation

Historic Weather in Blackpool — Graph

°F

Blackpool Temperature Yesterday

Maximum temperature yesterday: 54 °F (at 3:50 PM)
Minimum temperature yesterday: 41 °F (at 2:20 AM)
Average temperature yesterday: 48 °F

High & Low Weather Summary for the Past Weeks

 TemperatureHumidityPressure
High63 °F (Apr 20, 3:50 PM)100% (Apr 17, 6:50 AM)30.48 "Hg (Apr 17, 6:50 AM)
Low34 °F (Apr 17, 6:20 AM)37% (Apr 20, 5:20 PM)29.65 "Hg (Apr 29, 4:20 AM)
Average46 °F72%30.08 "Hg
* Reported Apr 17 1:20 AM — May 2 1:20 AM, Blackpool, Weather by CustomWeather, © 2016

Note: Actual official high and low records may vary slightly from our data, if they occured in-between our weather recording intervals... More about our weather records

Advertising

Blackpool Weather History for the Previous 24 Hours

Scroll right to see more
 ConditionsComfort  
Time TempWeatherWind HumidityBarometerVisibility
1:20 AM
Mon, May 2
54 °FClear.16 mph88%30.09 "Hg10 mi
12:50 AM54 °FPassing clouds.10 mph88%30.09 "HgN/A
12:20 AM52 °FPassing clouds.7 mph94%30.09 "HgN/A
11:50 PM
Sun, May 1
54 °FPassing clouds.6 mph88%30.09 "HgN/A
11:20 PM52 °FPassing clouds.6 mph94%30.12 "HgN/A
10:50 PM52 °FPassing clouds.7 mph94%30.12 "HgN/A
10:20 PM54 °FPassing clouds.7 mph88%30.12 "HgN/A
9:50 PM54 °FPassing clouds.7 mph88%30.12 "HgN/A
9:20 PM54 °FPartly sunny.7 mph88%30.12 "HgN/A
8:50 PM54 °FPartly sunny.8 mph88%30.15 "HgN/A
8:20 PM54 °FPartly sunny.8 mph88%30.15 "HgN/A
7:50 PM54 °FPartly sunny.7 mph88%30.15 "HgN/A
7:20 PM54 °FPartly sunny.8 mph88%30.15 "HgN/A
6:50 PM54 °FPartly sunny.13 mph88%30.15 "HgN/A
6:20 PM54 °FPartly sunny.12 mph88%30.15 "HgN/A
5:50 PM54 °FPartly sunny.8 mph88%30.15 "HgN/A
5:20 PM54 °FPartly sunny.9 mph88%30.18 "HgN/A
4:50 PM52 °FPartly sunny.15 mph88%30.18 "HgN/A
4:20 PM52 °FPartly sunny.14 mph88%30.18 "HgN/A
3:50 PM54 °FScattered showers. Partly sunny.16 mph88%30.18 "HgN/A
3:20 PM52 °FScattered showers. Partly sunny.16 mph88%30.18 "HgN/A
2:50 PM52 °FSprinkles. Partly sunny.20 mph88%30.18 "HgN/A
2:20 PM52 °FPartly sunny.13 mph82%30.18 "HgN/A
1:50 PM50 °FSprinkles. Partly sunny.13 mph88%30.18 "HgN/A
1:20 PM50 °FSprinkles. Broken clouds.12 mph88%30.18 "HgN/A
12:50 PM50 °FSprinkles. Scattered clouds.12 mph88%30.18 "HgN/A
12:20 PM50 °FSprinkles. Scattered clouds.13 mph88%30.21 "HgN/A
11:50 AM48 °FSprinkles. Passing clouds.12 mph87%30.21 "Hg6 mi
11:20 AM48 °FSprinkles. Partly sunny.12 mph87%30.21 "HgN/A
10:50 AM48 °FSprinkles. Passing clouds.10 mph87%30.21 "HgN/A
10:20 AM48 °FSprinkles. Passing clouds.8 mph87%30.24 "HgN/A
9:50 AM46 °FSprinkles. Passing clouds.9 mph93%30.24 "HgN/A
9:20 AM46 °FSprinkles. Passing clouds.8 mph87%30.24 "HgN/A
8:50 AM46 °FSprinkles. Partly sunny.9 mph87%30.24 "Hg6 mi
7:50 AM45 °FPartly sunny.8 mph87%30.24 "HgN/A
7:20 AM43 °FPassing clouds.8 mph87%30.24 "HgN/A
6:50 AM43 °FPassing clouds.8 mph87%30.24 "HgN/A
6:20 AM43 °FPassing clouds.8 mph87%30.24 "HgN/A
5:20 AM41 °FPassing clouds.7 mph87%30.24 "HgN/A
4:50 AM41 °FPassing clouds.7 mph87%30.24 "HgN/A
4:20 AM41 °FClear.6 mph87%30.27 "Hg10 mi
3:20 AM41 °FPassing clouds.7 mph87%30.27 "HgN/A
Weather by CustomWeather, © 2016

See weather overviewHow to use our weather pages